SITRO-AIS 9 (SHCHUKIN)

Last updated on Wed Oct 29 2025 00:03:53 GMT+0000 (Coordinated Universal Time)

1 57201U 23091AM 25301.63279809 .00020736 00000+0 74965-3 0 9996 2 57201 97.5415 2.7591 0008766 169.0353 191.1079 15.28441668129269
UTC large
Height (km)
Speed (km/s)
/
Latitude / Longitude
Inclination (degrees)
Orbital Period (minutes)
Azimuth
Elevation
Range (km)
Doppler Factor

Next 0 passes for location: London (51.5072 / 0.1276)

Sorry there are no passes over London.